Regional Weather Roundup
Issued by NWS

Home | Current Version | Previous Version | Text Only | Print | Product List | Glossary On
Versions: 1 2 3 4 5 6 7 8 9 10 11 12 13 14 15 16 17 18 19 20 21 22 23 24 25 26 27 28 29 30 31 32 33 34 35 36 37 38 39 40 41 42 43 44 45 46 47 48 49 50
000
ASUS43 KTOP 241659
RWRKS

WEATHER ROUNDUP FOR KANSAS
NATIONAL WEATHER SERVICE GOODLAND KS
1200 PM CDT SUN MAY 24 2015

NOTE:  "FAIR" INDICATES FEW OR NO CLOUDS BELOW 12,000 FEET WITH NO
SIGNIFICANT WEATHER AND/OR OBSTRUCTIONS TO VISIBILITY.

KSZ001>006-013>018-027>032-041>047-241800-
NORTHWEST KANSAS

CITY           SKY/WX    TMP DP  RH WIND       PRES   REMARKS
GOODLAND       CLOUDY    61  55  81 S5        29.88S
HAYS           CLOUDY    66  55  68 S8        29.86F
HILL CITY      CLOUDY    61  58  90 S6        29.88S
RUSSELL        CLOUDY    68  60  75 S12       29.85F
$$

KSZ061>065-074>080-084>089-241800-
SOUTHWEST KANSAS

CITY           SKY/WX    TMP DP  RH WIND       PRES   REMARKS
DODGE CITY     CLOUDY    62  58  86 SE10      29.88F
ELKHART          N/A     65  52  63 SE8         N/A
GARDEN CITY    CLOUDY    60  57  89 SE12      29.87R
GREAT BEND     CLOUDY    64  59  82 S9        29.86F
LIBERAL        CLOUDY    64  57  77 S13       29.88S
$$

KSZ066>073-081>083-090>101-241800-
SOUTHEAST KANSAS

CITY           SKY/WX    TMP DP  RH WIND       PRES   REMARKS
CHANUTE        CLOUDY    68  63  84 SW5       29.91F
COFFEYVILLE    CLOUDY    67  63  87 CALM      29.92R
HUTCHINSON     CLOUDY    67  60  78 SE8       29.89S
NEWTON         CLOUDY    64  57  77 SE10      29.92S
PARSONS        CLOUDY    67  63  87 VRB3      29.93R
WICHITA INTL   CLOUDY    67  61  81 S9        29.90R
WICHITA JABRA  CLOUDY    65  61  87 SE8       29.90S
WICHITA MCCONL CLOUDY    66  61  82 SE12      29.90S
WINFIELD       CLOUDY    66  61  84 S7        29.91S
$$

KSZ007>012-019>026-033>040-048>060-102>105-241800-
NORTHEAST KANSAS

CITY           SKY/WX    TMP DP  RH WIND       PRES   REMARKS
CONCORDIA      CLOUDY    65  60  84 S12       29.87R
EMPORIA        CLOUDY    67  60  78 S7        29.90F
LAWRENCE       LGT RAIN  67  63  87 S6        29.90S
MANHATTAN      CLOUDY    67  62  84 S7        29.88R
OLATHE IND     LGT RAIN  66  63  90 S7        29.91F
OLATHE EXE     LGT RAIN  66  63  90 SW7       29.90F
SALINA         CLOUDY    67  60  78 S12       29.88F
TOPEKA BILLARD LGT RAIN  68  63  84 S7        29.90R
TOPEKA FORBES  LGT RAIN  69  62  78 S6        29.89S
$$


USA.gov is the U.S. government's official web portal to all federal, state and local government web resources and services.